Location: Brachbach
(49.1847°N, 9.7240°E)
Time: 07:23:15
(UTC+00:00)

Cosmos 1025 Rocket - Pass Details

Date: 11 August 2024
Orbit: 590 x 612 km, 82.5° (Epoch: 07 September)

Event Time Altitude Azimuth Distance (km) Brightness Sun altitude
Rises 02:39:53 0° 359° (N) 2,889 7.1 -12.8°
Reaches altitude 10° 02:42:24 10° 12° (NNE) 1,982 6.5 -12.5°
Maximum altitude 02:46:08 27° 70° (ENE) 1,202 5.4 -12.0°
Drops below altitude 10° 02:49:51 10° 128° (SE) 1,971 5.8 -11.6°
Sets 02:52:20 0° 141° (SE) 2,870 6.5 -11.2°
